Year,Month,Day,Hour,Minute,Value (Times are PST for temperature in C)
2021,09,25,00,00,13.20
2021,09,25,00,01,13.20
2021,09,25,00,02,13.20
2021,09,25,00,03,13.20
2021,09,25,00,04,13.20
2021,09,25,00,05,13.20
2021,09,25,00,06,13.20
2021,09,25,00,07,13.20
2021,09,25,00,08,13.20
2021,09,25,00,09,13.20
2021,09,25,00,10,13.20
2021,09,25,00,11,13.20
2021,09,25,00,12,13.20
2021,09,25,00,13,13.20
2021,09,25,00,14,13.30
2021,09,25,00,15,13.30
2021,09,25,00,16,13.30
2021,09,25,00,17,13.30
2021,09,25,00,18,13.30
2021,09,25,00,19,13.30
2021,09,25,00,20,13.20
2021,09,25,00,21,13.20
2021,09,25,00,22,13.20
2021,09,25,00,23,13.20
2021,09,25,00,24,13.20
2021,09,25,00,25,13.20
2021,09,25,00,26,13.20
2021,09,25,00,27,13.10
2021,09,25,00,28,13.10
2021,09,25,00,29,13.10
2021,09,25,00,30,13.10
2021,09,25,00,31,13.10
2021,09,25,00,32,13.10
2021,09,25,00,33,13.10
2021,09,25,00,34,13.10
2021,09,25,00,35,13.10
2021,09,25,00,36,13.10
2021,09,25,00,37,13.10
2021,09,25,00,38,13.00
2021,09,25,00,39,13.00
2021,09,25,00,40,13.00
2021,09,25,00,41,12.90
2021,09,25,00,42,12.90
2021,09,25,00,43,12.90
2021,09,25,00,44,12.90
2021,09,25,00,45,12.90
2021,09,25,00,46,12.90
2021,09,25,00,47,12.90
2021,09,25,00,48,12.90
2021,09,25,00,49,12.90
2021,09,25,00,50,12.90
2021,09,25,00,51,12.90
2021,09,25,00,52,12.90
2021,09,25,00,53,12.80
2021,09,25,00,54,12.80
2021,09,25,00,55,12.80
2021,09,25,00,56,12.80
2021,09,25,00,57,12.80
2021,09,25,00,58,12.80
2021,09,25,00,59,12.80
2021,09,25,01,00,12.80
2021,09,25,01,01,12.80
2021,09,25,01,02,12.80
2021,09,25,01,03,12.80
2021,09,25,01,04,12.80
2021,09,25,01,05,12.80
2021,09,25,01,06,12.80
2021,09,25,01,07,12.80
2021,09,25,01,08,12.70
2021,09,25,01,09,12.70
2021,09,25,01,10,12.70
2021,09,25,01,11,12.70
2021,09,25,01,12,12.70
2021,09,25,01,13,12.70
2021,09,25,01,14,12.70
2021,09,25,01,15,12.70
2021,09,25,01,16,12.60
2021,09,25,01,17,12.60
2021,09,25,01,18,12.60
2021,09,25,01,19,12.60
2021,09,25,01,20,12.60
2021,09,25,01,21,12.60
2021,09,25,01,22,12.60
2021,09,25,01,23,12.60
2021,09,25,01,24,12.60
2021,09,25,01,25,12.60
2021,09,25,01,26,12.60
2021,09,25,01,27,12.60
2021,09,25,01,28,12.60
2021,09,25,01,29,12.60
2021,09,25,01,30,12.60
2021,09,25,01,31,12.60
2021,09,25,01,32,12.60
2021,09,25,01,33,12.60
2021,09,25,01,34,12.60
2021,09,25,01,35,12.60
2021,09,25,01,36,12.60
2021,09,25,01,37,12.50
2021,09,25,01,38,12.50
2021,09,25,01,39,12.50
2021,09,25,01,40,12.50
2021,09,25,01,41,12.50
2021,09,25,01,42,12.40
2021,09,25,01,43,12.40
2021,09,25,01,44,12.40
2021,09,25,01,45,12.40
2021,09,25,01,46,12.40
2021,09,25,01,47,12.40
2021,09,25,01,48,12.30
2021,09,25,01,49,12.30
2021,09,25,01,50,12.30
2021,09,25,01,51,12.30
2021,09,25,01,52,12.30
2021,09,25,01,53,12.30
2021,09,25,01,54,12.30
2021,09,25,01,55,12.30
2021,09,25,01,56,12.30
2021,09,25,01,57,12.30
2021,09,25,01,58,12.30
2021,09,25,01,59,12.30
2021,09,25,02,00,12.30
2021,09,25,02,01,12.30
2021,09,25,02,02,12.20
2021,09,25,02,03,12.30
2021,09,25,02,04,12.30
2021,09,25,02,05,12.30
2021,09,25,02,06,12.20
2021,09,25,02,07,12.20
2021,09,25,02,08,12.20
2021,09,25,02,09,12.20
2021,09,25,02,10,12.20
2021,09,25,02,11,12.20
2021,09,25,02,12,12.20
2021,09,25,02,13,12.20
2021,09,25,02,14,12.20
2021,09,25,02,15,12.10
2021,09,25,02,16,12.10
2021,09,25,02,17,12.10
2021,09,25,02,18,12.20
2021,09,25,02,19,12.20
2021,09,25,02,20,12.20
2021,09,25,02,21,12.20
2021,09,25,02,22,12.20
2021,09,25,02,23,12.20
2021,09,25,02,24,12.20
2021,09,25,02,25,12.20
2021,09,25,02,26,12.20
2021,09,25,02,27,12.20
2021,09,25,02,28,12.20
2021,09,25,02,29,12.20
2021,09,25,02,30,12.20
2021,09,25,02,31,12.10
2021,09,25,02,32,12.10
2021,09,25,02,33,12.10
2021,09,25,02,34,12.10
2021,09,25,02,35,12.00
2021,09,25,02,36,12.00
2021,09,25,02,37,12.00
2021,09,25,02,38,12.00
2021,09,25,02,39,12.00
2021,09,25,02,40,12.00
2021,09,25,02,41,12.00
2021,09,25,02,42,12.00
2021,09,25,02,43,12.00
2021,09,25,02,44,12.00
2021,09,25,02,45,12.00
2021,09,25,02,46,12.00
2021,09,25,02,47,12.00
2021,09,25,02,48,12.00
2021,09,25,02,49,12.00
2021,09,25,02,50,12.00
2021,09,25,02,51,11.90
2021,09,25,02,52,11.90
2021,09,25,02,53,11.90
2021,09,25,02,54,11.90
2021,09,25,02,55,11.90
2021,09,25,02,56,11.80
2021,09,25,02,57,11.80
2021,09,25,02,58,11.80
2021,09,25,02,59,11.80
2021,09,25,03,00,11.80
2021,09,25,03,01,11.80
2021,09,25,03,02,11.80
2021,09,25,03,03,11.70
2021,09,25,03,04,11.70
2021,09,25,03,05,11.70
2021,09,25,03,06,11.70
2021,09,25,03,07,11.70
2021,09,25,03,08,11.60
2021,09,25,03,09,11.60
2021,09,25,03,10,11.60
2021,09,25,03,11,11.60
2021,09,25,03,12,11.60
2021,09,25,03,13,11.60
2021,09,25,03,14,11.50
2021,09,25,03,15,11.50
2021,09,25,03,16,11.50
2021,09,25,03,17,11.60
2021,09,25,03,18,11.60
2021,09,25,03,19,11.60
2021,09,25,03,20,11.60
2021,09,25,03,21,11.60
2021,09,25,03,22,11.60
2021,09,25,03,23,11.60
2021,09,25,03,24,11.60
2021,09,25,03,25,11.60
2021,09,25,03,26,11.60
2021,09,25,03,27,11.60
2021,09,25,03,28,11.60
2021,09,25,03,29,11.60
2021,09,25,03,30,11.60
2021,09,25,03,31,11.60
2021,09,25,03,32,11.60
2021,09,25,03,33,11.60
2021,09,25,03,34,11.60
2021,09,25,03,35,11.50
2021,09,25,03,36,11.50
2021,09,25,03,37,11.40
2021,09,25,03,38,11.40
2021,09,25,03,39,11.40
2021,09,25,03,40,11.40
2021,09,25,03,41,11.40
2021,09,25,03,42,11.40
2021,09,25,03,43,11.30
2021,09,25,03,44,11.30
2021,09,25,03,45,11.30
2021,09,25,03,46,11.30
2021,09,25,03,47,11.30
2021,09,25,03,48,11.30
2021,09,25,03,49,11.30
2021,09,25,03,50,11.20
2021,09,25,03,51,11.20
2021,09,25,03,52,11.20
2021,09,25,03,53,11.20
2021,09,25,03,54,11.30
2021,09,25,03,55,11.30
2021,09,25,03,56,11.30
2021,09,25,03,57,11.30
2021,09,25,03,58,11.30
2021,09,25,03,59,11.40
2021,09,25,04,00,11.40
2021,09,25,04,01,11.40
2021,09,25,04,02,11.40
2021,09,25,04,03,11.40
2021,09,25,04,04,11.40
2021,09,25,04,05,11.40
2021,09,25,04,06,11.40
2021,09,25,04,07,11.40
2021,09,25,04,08,11.40
2021,09,25,04,09,11.30
2021,09,25,04,10,11.30
2021,09,25,04,11,11.30
2021,09,25,04,12,11.40
2021,09,25,04,13,11.40
2021,09,25,04,14,11.40
2021,09,25,04,15,11.40
2021,09,25,04,16,11.40
2021,09,25,04,17,11.40
2021,09,25,04,18,11.50
2021,09,25,04,19,11.50
2021,09,25,04,20,11.50
2021,09,25,04,21,11.50
2021,09,25,04,22,11.40
2021,09,25,04,23,11.40
2021,09,25,04,24,11.40
2021,09,25,04,25,11.40
2021,09,25,04,26,11.30
2021,09,25,04,27,11.30
2021,09,25,04,28,11.30
2021,09,25,04,29,11.30
2021,09,25,04,30,11.20
2021,09,25,04,31,11.20
2021,09,25,04,32,11.20
2021,09,25,04,33,11.20
2021,09,25,04,34,11.20
2021,09,25,04,35,11.20
2021,09,25,04,36,11.20
2021,09,25,04,37,11.20
2021,09,25,04,38,11.20
2021,09,25,04,39,11.20
2021,09,25,04,40,11.20
2021,09,25,04,41,11.20
2021,09,25,04,42,11.20
2021,09,25,04,43,11.20
2021,09,25,04,44,11.20
2021,09,25,04,45,11.20
2021,09,25,04,46,11.20
2021,09,25,04,47,11.20
2021,09,25,04,48,11.20
2021,09,25,04,49,11.20
2021,09,25,04,50,11.10
2021,09,25,04,51,11.10
2021,09,25,04,52,11.20
2021,09,25,04,53,11.10
2021,09,25,04,54,11.10
2021,09,25,04,55,11.10
2021,09,25,04,56,11.10
2021,09,25,04,57,11.10
2021,09,25,04,58,11.10
2021,09,25,04,59,11.00
2021,09,25,05,00,11.00
2021,09,25,05,01,11.00
2021,09,25,05,02,11.00
2021,09,25,05,03,10.90
2021,09,25,05,04,10.90
2021,09,25,05,05,10.90
2021,09,25,05,06,10.90
2021,09,25,05,07,10.90
2021,09,25,05,08,10.90
2021,09,25,05,09,10.90
2021,09,25,05,10,10.90
2021,09,25,05,11,10.90
2021,09,25,05,12,10.90
2021,09,25,05,13,10.90
2021,09,25,05,14,10.90
2021,09,25,05,15,11.00
2021,09,25,05,16,11.00
2021,09,25,05,17,11.10
2021,09,25,05,18,11.10
2021,09,25,05,19,11.10
2021,09,25,05,20,11.10
2021,09,25,05,21,11.10
2021,09,25,05,22,11.10
2021,09,25,05,23,11.00
2021,09,25,05,24,11.00
2021,09,25,05,25,11.00
2021,09,25,05,26,11.00
2021,09,25,05,27,10.90
2021,09,25,05,28,10.90
2021,09,25,05,29,10.90
2021,09,25,05,30,10.90
2021,09,25,05,31,10.80
2021,09,25,05,32,10.80
2021,09,25,05,33,10.80
2021,09,25,05,34,10.80
2021,09,25,05,35,10.80
2021,09,25,05,36,10.70
2021,09,25,05,37,10.70
2021,09,25,05,38,10.70
2021,09,25,05,39,10.60
2021,09,25,05,40,10.60
2021,09,25,05,41,10.60
2021,09,25,05,42,10.60
2021,09,25,05,43,10.60
2021,09,25,05,44,10.60
2021,09,25,05,45,10.60
2021,09,25,05,46,10.60
2021,09,25,05,47,10.60
2021,09,25,05,48,10.60
2021,09,25,05,49,10.60
2021,09,25,05,50,10.60
2021,09,25,05,51,10.60
2021,09,25,05,52,10.60
2021,09,25,05,53,10.60
2021,09,25,05,54,10.60
2021,09,25,05,55,10.60
2021,09,25,05,56,10.60
2021,09,25,05,57,10.60
2021,09,25,05,58,10.60
2021,09,25,05,59,10.60
2021,09,25,06,00,10.60
2021,09,25,06,01,10.60
2021,09,25,06,02,10.60
2021,09,25,06,03,10.70
2021,09,25,06,04,10.70
2021,09,25,06,05,10.70
2021,09,25,06,06,10.70
2021,09,25,06,07,10.70
2021,09,25,06,08,10.70
2021,09,25,06,09,10.70
2021,09,25,06,10,10.70
2021,09,25,06,11,10.70
2021,09,25,06,12,10.70
2021,09,25,06,13,10.70
2021,09,25,06,14,10.70
2021,09,25,06,15,10.70
2021,09,25,06,16,10.70
2021,09,25,06,17,10.70
2021,09,25,06,18,10.70
2021,09,25,06,19,10.70
2021,09,25,06,20,10.70
2021,09,25,06,21,10.60
2021,09,25,06,22,10.60
2021,09,25,06,23,10.60
2021,09,25,06,24,10.50
2021,09,25,06,25,10.50
2021,09,25,06,26,10.50
2021,09,25,06,27,10.50
2021,09,25,06,28,10.50
2021,09,25,06,29,10.50
2021,09,25,06,30,10.50
2021,09,25,06,31,10.50
2021,09,25,06,32,10.50
2021,09,25,06,33,10.40
2021,09,25,06,34,10.40
2021,09,25,06,35,10.40
2021,09,25,06,36,10.40
2021,09,25,06,37,10.40
2021,09,25,06,38,10.40
2021,09,25,06,39,10.30
2021,09,25,06,40,10.30
2021,09,25,06,41,10.40
2021,09,25,06,42,10.40
2021,09,25,06,43,10.40
2021,09,25,06,44,10.40
2021,09,25,06,45,10.40
2021,09,25,06,46,10.40
2021,09,25,06,47,10.40
2021,09,25,06,48,10.40
2021,09,25,06,49,10.40
2021,09,25,06,50,10.40
2021,09,25,06,51,10.40
2021,09,25,06,52,10.40
2021,09,25,06,53,10.40
2021,09,25,06,54,10.40
2021,09,25,06,55,10.40
2021,09,25,06,56,10.40
2021,09,25,06,57,10.40
2021,09,25,06,58,10.40
2021,09,25,06,59,10.40
2021,09,25,07,00,10.40
2021,09,25,07,01,10.40
2021,09,25,07,02,10.40
2021,09,25,07,03,10.40
2021,09,25,07,04,10.40
2021,09,25,07,05,10.50
2021,09,25,07,06,10.50
2021,09,25,07,07,10.50
2021,09,25,07,08,10.40
2021,09,25,07,09,10.40
2021,09,25,07,10,10.40
2021,09,25,07,11,10.40
2021,09,25,07,12,10.40
2021,09,25,07,13,10.40
2021,09,25,07,14,10.40
2021,09,25,07,15,10.40
2021,09,25,07,16,10.40
2021,09,25,07,17,10.40
2021,09,25,07,18,10.40
2021,09,25,07,19,10.30
2021,09,25,07,20,10.30
2021,09,25,07,21,10.30
2021,09,25,07,22,10.30
2021,09,25,07,23,10.30
2021,09,25,07,24,10.30
2021,09,25,07,25,10.30
2021,09,25,07,26,10.20
2021,09,25,07,27,10.20
2021,09,25,07,28,10.20
2021,09,25,07,29,10.20
2021,09,25,07,30,10.20
2021,09,25,07,31,10.20
2021,09,25,07,32,10.20
2021,09,25,07,33,10.30
2021,09,25,07,34,10.30
2021,09,25,07,35,10.30
2021,09,25,07,36,10.40
2021,09,25,07,37,10.40
2021,09,25,07,38,10.40
2021,09,25,07,39,10.50
2021,09,25,07,40,10.50
2021,09,25,07,41,10.50
2021,09,25,07,42,10.50
2021,09,25,07,43,10.50
2021,09,25,07,44,10.60
2021,09,25,07,45,10.60
2021,09,25,07,46,10.60
2021,09,25,07,47,10.60
2021,09,25,07,48,10.70
2021,09,25,07,49,10.70
2021,09,25,07,50,10.70
2021,09,25,07,51,10.70
2021,09,25,07,52,10.80
2021,09,25,07,53,10.80
2021,09,25,07,54,10.90
2021,09,25,07,55,11.00
2021,09,25,07,56,11.00
2021,09,25,07,57,11.10
2021,09,25,07,58,11.20
2021,09,25,07,59,11.20
2021,09,25,08,00,11.30
2021,09,25,08,01,11.30
2021,09,25,08,02,11.30
2021,09,25,08,03,11.30
2021,09,25,08,04,11.30
2021,09,25,08,05,11.30
2021,09,25,08,06,11.30
2021,09,25,08,07,11.30
2021,09,25,08,08,11.30
2021,09,25,08,09,11.40
2021,09,25,08,10,11.40
2021,09,25,08,11,11.40
2021,09,25,08,12,11.40
2021,09,25,08,13,11.40
2021,09,25,08,14,11.40
2021,09,25,08,15,11.50
2021,09,25,08,16,11.50
2021,09,25,08,17,11.60
2021,09,25,08,18,11.60
2021,09,25,08,19,11.60
2021,09,25,08,20,11.70
2021,09,25,08,21,11.70
2021,09,25,08,22,11.70
2021,09,25,08,23,11.80
2021,09,25,08,24,11.90
2021,09,25,08,25,12.00
2021,09,25,08,26,12.00
2021,09,25,08,27,12.10
2021,09,25,08,28,12.10
2021,09,25,08,29,12.10
2021,09,25,08,30,12.20
2021,09,25,08,31,12.20
2021,09,25,08,32,12.20
2021,09,25,08,33,12.30
2021,09,25,08,34,12.30
2021,09,25,08,35,12.40
2021,09,25,08,36,12.40
2021,09,25,08,37,12.50
2021,09,25,08,38,12.50
2021,09,25,08,39,12.60
2021,09,25,08,40,12.70
2021,09,25,08,41,12.80
2021,09,25,08,42,12.90
2021,09,25,08,43,13.00
2021,09,25,08,44,13.10
2021,09,25,08,45,13.30
2021,09,25,08,46,13.40
2021,09,25,08,47,13.50
2021,09,25,08,48,13.70
2021,09,25,08,49,13.80
2021,09,25,08,50,13.80
2021,09,25,08,51,13.90
2021,09,25,08,52,13.90
2021,09,25,08,53,13.90
2021,09,25,08,54,13.90
2021,09,25,08,55,14.00
2021,09,25,08,56,14.00
2021,09,25,08,57,14.10
2021,09,25,08,58,14.20
2021,09,25,08,59,14.30
2021,09,25,09,00,14.50
2021,09,25,09,01,14.50
2021,09,25,09,02,14.60
2021,09,25,09,03,14.70
2021,09,25,09,04,14.80
2021,09,25,09,05,14.90
2021,09,25,09,06,15.00
2021,09,25,09,07,15.10
2021,09,25,09,08,15.20
2021,09,25,09,09,15.30
2021,09,25,09,10,15.40
2021,09,25,09,11,15.60
2021,09,25,09,12,15.70
2021,09,25,09,13,15.80
2021,09,25,09,14,15.90
2021,09,25,09,15,16.00
2021,09,25,09,16,16.10
2021,09,25,09,17,16.20
2021,09,25,09,18,16.20
2021,09,25,09,19,16.30
2021,09,25,09,20,16.40
2021,09,25,09,21,16.40
2021,09,25,09,22,16.50
2021,09,25,09,23,16.60
2021,09,25,09,24,16.60
2021,09,25,09,25,16.70
2021,09,25,09,26,16.80
2021,09,25,09,27,16.80
2021,09,25,09,28,16.80
2021,09,25,09,29,16.80
2021,09,25,09,30,16.80
2021,09,25,09,31,16.80
2021,09,25,09,32,16.80
2021,09,25,09,33,16.80
2021,09,25,09,34,16.90
2021,09,25,09,35,16.90
2021,09,25,09,36,16.90
2021,09,25,09,37,16.90
2021,09,25,09,38,16.90
2021,09,25,09,39,16.90
2021,09,25,09,40,16.90
2021,09,25,09,41,16.80
2021,09,25,09,42,16.80
2021,09,25,09,43,16.80
2021,09,25,09,44,16.80
2021,09,25,09,45,16.80
2021,09,25,09,46,16.80
2021,09,25,09,47,16.70
2021,09,25,09,48,16.70
2021,09,25,09,49,16.70
2021,09,25,09,50,16.60
2021,09,25,09,51,16.60
2021,09,25,09,52,16.60
2021,09,25,09,53,16.60
2021,09,25,09,54,16.60
2021,09,25,09,55,16.60
2021,09,25,09,56,16.60
2021,09,25,09,57,16.60
2021,09,25,09,58,16.60
2021,09,25,09,59,16.60
2021,09,25,10,00,16.60
2021,09,25,10,01,16.60
2021,09,25,10,02,16.60
2021,09,25,10,03,16.70
2021,09,25,10,04,16.70
2021,09,25,10,05,16.70
2021,09,25,10,06,16.80
2021,09,25,10,07,16.80
2021,09,25,10,08,16.90
2021,09,25,10,09,16.90
2021,09,25,10,10,16.90
2021,09,25,10,11,17.00
2021,09,25,10,12,17.00
2021,09,25,10,13,17.00
2021,09,25,10,14,17.10
2021,09,25,10,15,17.10
2021,09,25,10,16,17.10
2021,09,25,10,17,17.10
2021,09,25,10,18,17.20
2021,09,25,10,19,17.20
2021,09,25,10,20,17.10
2021,09,25,10,21,17.00
2021,09,25,10,22,17.00
2021,09,25,10,23,16.90
2021,09,25,10,24,16.80
2021,09,25,10,25,16.80
2021,09,25,10,26,16.80
2021,09,25,10,27,16.80
2021,09,25,10,28,16.80
2021,09,25,10,29,16.80
2021,09,25,10,30,16.80
2021,09,25,10,31,16.80
2021,09,25,10,32,16.70
2021,09,25,10,33,16.70
2021,09,25,10,34,16.70
2021,09,25,10,35,16.70
2021,09,25,10,36,16.70
2021,09,25,10,37,16.70
2021,09,25,10,38,16.70
2021,09,25,10,39,16.70
2021,09,25,10,40,16.70
2021,09,25,10,41,16.80
2021,09,25,10,42,16.80
2021,09,25,10,43,16.80
2021,09,25,10,44,16.80
2021,09,25,10,45,16.80
2021,09,25,10,46,16.80
2021,09,25,10,47,16.80
2021,09,25,10,48,16.80
2021,09,25,10,49,16.90
2021,09,25,10,50,16.90
2021,09,25,10,51,16.90
2021,09,25,10,52,17.00
2021,09,25,10,53,17.10
2021,09,25,10,54,17.10
2021,09,25,10,55,17.20
2021,09,25,10,56,17.20
2021,09,25,10,57,17.20
2021,09,25,10,58,17.20
2021,09,25,10,59,17.20
2021,09,25,11,00,17.30
2021,09,25,11,01,17.30
2021,09,25,11,02,17.30
2021,09,25,11,03,17.30
2021,09,25,11,04,17.30
2021,09,25,11,05,17.40
2021,09,25,11,06,17.40
2021,09,25,11,07,17.40
2021,09,25,11,08,17.40
2021,09,25,11,09,17.50
2021,09,25,11,10,17.50
2021,09,25,11,11,17.50
2021,09,25,11,12,17.60
2021,09,25,11,13,17.60
2021,09,25,11,14,17.70
2021,09,25,11,15,17.70
2021,09,25,11,16,17.80
2021,09,25,11,17,17.80
2021,09,25,11,18,17.90
2021,09,25,11,19,17.90
2021,09,25,11,20,18.00
2021,09,25,11,21,18.10
2021,09,25,11,22,18.10
2021,09,25,11,23,18.20
2021,09,25,11,24,18.20
2021,09,25,11,25,18.20
2021,09,25,11,26,18.20
2021,09,25,11,27,18.20
2021,09,25,11,28,18.20
2021,09,25,11,29,18.20
2021,09,25,11,30,18.20
2021,09,25,11,31,18.30
2021,09,25,11,32,18.30
2021,09,25,11,33,18.20
2021,09,25,11,34,18.20
2021,09,25,11,35,18.10
2021,09,25,11,36,18.10
2021,09,25,11,37,18.10
2021,09,25,11,38,18.00
2021,09,25,11,39,18.00
2021,09,25,11,40,18.00
2021,09,25,11,41,17.90
2021,09,25,11,42,17.80
2021,09,25,11,43,17.70
2021,09,25,11,44,17.60
2021,09,25,11,45,17.50
2021,09,25,11,46,17.50
2021,09,25,11,47,17.30
2021,09,25,11,48,17.20
2021,09,25,11,49,17.20
2021,09,25,11,50,17.10
2021,09,25,11,51,17.00
2021,09,25,11,52,17.00
2021,09,25,11,53,16.90
2021,09,25,11,54,16.80
2021,09,25,11,55,16.80
2021,09,25,11,56,16.80
2021,09,25,11,57,16.80
2021,09,25,11,58,16.70
2021,09,25,11,59,16.70
2021,09,25,12,00,16.70
2021,09,25,12,01,16.80
2021,09,25,12,02,16.80
2021,09,25,12,03,16.80
2021,09,25,12,04,16.80
2021,09,25,12,05,16.70
2021,09,25,12,06,16.80
2021,09,25,12,07,16.80
2021,09,25,12,08,16.90
2021,09,25,12,09,16.90
2021,09,25,12,10,16.90
2021,09,25,12,11,17.00
2021,09,25,12,12,17.00
2021,09,25,12,13,17.10
2021,09,25,12,14,17.10
2021,09,25,12,15,17.00
2021,09,25,12,16,17.10
2021,09,25,12,17,17.10
2021,09,25,12,18,17.10
2021,09,25,12,19,17.10
2021,09,25,12,20,17.10
2021,09,25,12,21,17.10
2021,09,25,12,22,17.10
2021,09,25,12,23,17.10
2021,09,25,12,24,17.20
2021,09,25,12,25,17.30
2021,09,25,12,26,17.30
2021,09,25,12,27,17.40
2021,09,25,12,28,17.60
2021,09,25,12,29,17.70
2021,09,25,12,30,17.70
2021,09,25,12,31,17.80
2021,09,25,12,32,17.90
2021,09,25,12,33,18.00
2021,09,25,12,34,18.00
2021,09,25,12,35,18.10
2021,09,25,12,36,18.20
2021,09,25,12,37,18.20
2021,09,25,12,38,18.30
2021,09,25,12,39,18.30
2021,09,25,12,40,18.30
2021,09,25,12,41,18.30
2021,09,25,12,42,18.40
2021,09,25,12,43,18.40
2021,09,25,12,44,18.40
2021,09,25,12,45,18.30
2021,09,25,12,46,18.10
2021,09,25,12,47,17.90
2021,09,25,12,48,17.80
2021,09,25,12,49,17.70
2021,09,25,12,50,17.60
2021,09,25,12,51,17.50
2021,09,25,12,52,17.40
2021,09,25,12,53,17.40
2021,09,25,12,54,17.20
2021,09,25,12,55,17.20
2021,09,25,12,56,17.00
2021,09,25,12,57,16.90
2021,09,25,12,58,16.90
2021,09,25,12,59,16.80
2021,09,25,13,00,16.80
2021,09,25,13,01,16.80
2021,09,25,13,02,16.80
2021,09,25,13,03,16.80
2021,09,25,13,04,16.80
2021,09,25,13,05,16.80
2021,09,25,13,06,16.80
2021,09,25,13,07,16.80
2021,09,25,13,08,16.70
2021,09,25,13,09,16.70
2021,09,25,13,10,16.70
2021,09,25,13,11,16.70
2021,09,25,13,12,16.70
2021,09,25,13,13,16.70
2021,09,25,13,14,16.70
2021,09,25,13,15,16.80
2021,09,25,13,16,16.90
2021,09,25,13,17,17.00
2021,09,25,13,18,17.10
2021,09,25,13,19,17.20
2021,09,25,13,20,17.30
2021,09,25,13,21,17.50
2021,09,25,13,22,17.50
2021,09,25,13,23,17.50
2021,09,25,13,24,17.40
2021,09,25,13,25,17.40
2021,09,25,13,26,17.40
2021,09,25,13,27,17.40
2021,09,25,13,28,17.50
2021,09,25,13,29,17.50
2021,09,25,13,30,17.50
2021,09,25,13,31,17.60
2021,09,25,13,32,17.50
2021,09,25,13,33,17.50
2021,09,25,13,34,17.40
2021,09,25,13,35,17.30
2021,09,25,13,36,17.20
2021,09,25,13,37,17.10
2021,09,25,13,38,17.00
2021,09,25,13,39,16.90
2021,09,25,13,40,16.90
2021,09,25,13,41,16.90
2021,09,25,13,42,16.80
2021,09,25,13,43,16.80
2021,09,25,13,44,16.80
2021,09,25,13,45,16.90
2021,09,25,13,46,16.90
2021,09,25,13,47,17.00
2021,09,25,13,48,17.10
2021,09,25,13,49,17.20
2021,09,25,13,50,17.20
2021,09,25,13,51,17.20
2021,09,25,13,52,17.20
2021,09,25,13,53,17.30
2021,09,25,13,54,17.20
2021,09,25,13,55,17.10
2021,09,25,13,56,16.80
2021,09,25,13,57,16.50
2021,09,25,13,58,16.20
2021,09,25,13,59,16.00
2021,09,25,14,00,15.80
2021,09,25,14,01,15.70
2021,09,25,14,02,15.50
2021,09,25,14,03,15.40
2021,09,25,14,04,15.20
2021,09,25,14,05,15.10
2021,09,25,14,06,15.00
2021,09,25,14,07,14.90
2021,09,25,14,08,14.80
2021,09,25,14,09,14.80
2021,09,25,14,10,14.80
2021,09,25,14,11,14.80
2021,09,25,14,12,14.90
2021,09,25,14,13,14.90
2021,09,25,14,14,15.00
2021,09,25,14,15,15.00
2021,09,25,14,16,15.00
2021,09,25,14,17,15.10
2021,09,25,14,18,15.10
2021,09,25,14,19,15.20
2021,09,25,14,20,15.30
2021,09,25,14,21,15.30
2021,09,25,14,22,15.30
2021,09,25,14,23,15.20
2021,09,25,14,24,15.20
2021,09,25,14,25,15.20
2021,09,25,14,26,15.10
2021,09,25,14,27,15.10
2021,09,25,14,28,15.10
2021,09,25,14,29,15.00
2021,09,25,14,30,15.10
2021,09,25,14,31,15.10
2021,09,25,14,32,15.20
2021,09,25,14,33,15.20
2021,09,25,14,34,15.20
2021,09,25,14,35,15.20
2021,09,25,14,36,15.20
2021,09,25,14,37,15.20
2021,09,25,14,38,15.10
2021,09,25,14,39,15.00
2021,09,25,14,40,14.90
2021,09,25,14,41,14.90
2021,09,25,14,42,14.80
2021,09,25,14,43,14.80
2021,09,25,14,44,14.90
2021,09,25,14,45,14.90
2021,09,25,14,46,14.90
2021,09,25,14,47,15.00
2021,09,25,14,48,15.10
2021,09,25,14,49,15.20
2021,09,25,14,50,15.20
2021,09,25,14,51,15.30
2021,09,25,14,52,15.40
2021,09,25,14,53,15.40
2021,09,25,14,54,15.40
2021,09,25,14,55,15.50
2021,09,25,14,56,15.50
2021,09,25,14,57,15.40
2021,09,25,14,58,15.50
2021,09,25,14,59,15.40
2021,09,25,15,00,15.40
2021,09,25,15,01,15.40
2021,09,25,15,02,15.40
2021,09,25,15,03,15.40
2021,09,25,15,04,15.40
2021,09,25,15,05,15.40
2021,09,25,15,06,15.40
2021,09,25,15,07,15.40
2021,09,25,15,08,15.40
2021,09,25,15,09,15.40
2021,09,25,15,10,15.40
2021,09,25,15,11,15.40
2021,09,25,15,12,15.50
2021,09,25,15,13,15.60
2021,09,25,15,14,15.60
2021,09,25,15,15,15.70
2021,09,25,15,16,15.80
2021,09,25,15,17,15.90
2021,09,25,15,18,16.00
2021,09,25,15,19,16.10
2021,09,25,15,20,16.20
2021,09,25,15,21,16.40
2021,09,25,15,22,16.50
2021,09,25,15,23,16.60
2021,09,25,15,24,16.70
2021,09,25,15,25,16.80
2021,09,25,15,26,16.90
2021,09,25,15,27,16.90
2021,09,25,15,28,17.00
2021,09,25,15,29,17.10
2021,09,25,15,30,17.10
2021,09,25,15,31,17.20
2021,09,25,15,32,17.20
2021,09,25,15,33,17.30
2021,09,25,15,34,17.40
2021,09,25,15,35,17.50
2021,09,25,15,36,17.60
2021,09,25,15,37,17.70
2021,09,25,15,38,17.80
2021,09,25,15,39,17.80
2021,09,25,15,40,17.80
2021,09,25,15,41,17.80
2021,09,25,15,42,17.80
2021,09,25,15,43,17.90
2021,09,25,15,44,17.80
2021,09,25,15,45,17.80
2021,09,25,15,46,17.80
2021,09,25,15,47,17.70
2021,09,25,15,48,17.70
2021,09,25,15,49,17.70
2021,09,25,15,50,17.70
2021,09,25,15,51,17.70
2021,09,25,15,52,17.60
2021,09,25,15,53,17.60
2021,09,25,15,54,17.60
2021,09,25,15,55,17.60
2021,09,25,15,56,17.60
2021,09,25,15,57,17.60
2021,09,25,15,58,17.60
2021,09,25,15,59,17.60
2021,09,25,16,00,17.60
2021,09,25,16,01,17.60
2021,09,25,16,02,17.70
2021,09,25,16,03,17.70
2021,09,25,16,04,17.60
2021,09,25,16,05,17.60
2021,09,25,16,06,17.60
2021,09,25,16,07,17.60
2021,09,25,16,08,17.50
2021,09,25,16,09,17.50
2021,09,25,16,10,17.50
2021,09,25,16,11,17.50
2021,09,25,16,12,17.50
2021,09,25,16,13,17.50
2021,09,25,16,14,17.50
2021,09,25,16,15,17.60
2021,09,25,16,16,17.60
2021,09,25,16,17,17.60
2021,09,25,16,18,17.60
2021,09,25,16,19,17.70
2021,09,25,16,20,17.70
2021,09,25,16,21,17.70
2021,09,25,16,22,17.70
2021,09,25,16,23,17.70
2021,09,25,16,24,17.80
2021,09,25,16,25,17.80
2021,09,25,16,26,17.80
2021,09,25,16,27,17.80
2021,09,25,16,28,17.90
2021,09,25,16,29,18.00
2021,09,25,16,30,18.10
2021,09,25,16,31,18.30
2021,09,25,16,32,18.40
2021,09,25,16,33,18.50
2021,09,25,16,34,18.60
2021,09,25,16,35,18.70
2021,09,25,16,36,18.80
2021,09,25,16,37,18.90
2021,09,25,16,38,19.00
2021,09,25,16,39,19.20
2021,09,25,16,40,19.30
2021,09,25,16,41,19.40
2021,09,25,16,42,19.50
2021,09,25,16,43,19.70
2021,09,25,16,44,19.80
2021,09,25,16,45,19.90
2021,09,25,16,46,20.00
2021,09,25,16,47,20.10
2021,09,25,16,48,20.20
2021,09,25,16,49,20.20
2021,09,25,16,50,20.20
2021,09,25,16,51,20.20
2021,09,25,16,52,20.30
2021,09,25,16,53,20.30
2021,09,25,16,54,20.40
2021,09,25,16,55,20.40
2021,09,25,16,56,20.50
2021,09,25,16,57,20.50
2021,09,25,16,58,20.50
2021,09,25,16,59,20.50
2021,09,25,17,00,20.60
2021,09,25,17,01,20.60
2021,09,25,17,02,20.60
2021,09,25,17,03,20.60
2021,09,25,17,04,20.70
2021,09,25,17,05,20.70
2021,09,25,17,06,20.70
2021,09,25,17,07,20.70
2021,09,25,17,08,20.80
2021,09,25,17,09,20.80
2021,09,25,17,10,20.80
2021,09,25,17,11,20.80
2021,09,25,17,12,20.80
2021,09,25,17,13,20.80
2021,09,25,17,14,20.90
2021,09,25,17,15,20.90
2021,09,25,17,16,21.00
2021,09,25,17,17,21.00
2021,09,25,17,18,21.10
2021,09,25,17,19,21.20